Flag for Malaysia Weather past 2 weeks in Kuching, Malaysia

Now
75 °F

Light rain. Broken clouds.


Feels Like: 75 °F
Forecast: 75 / 82 °F
Wind: 5 mph from Northwest

Location: Kuching Airport

Current Time: Aug 29, 2014 at 7:37:38 AM

Latest Report: Aug 29, 2014 at 7:00 AM


Visibility: 4 mi

Pressure: 29.89 "Hg

Humidity: 89%

Dew point: 72 °F

Location of KuchingLocation

Historic Weather in Kuching — Graph

°F

Kuching temperature yesterday

Maximum temperature yesterday: 88 °F (at 3:30 PM)
Minimum temperature yesterday: 75 °F (at 12:00 AM)
Average temperature yesterday: 80 °F

Past Weeks' High & Low Weather Summary

 TemperatureHumidityPressure
High93 °F (Aug 23, 4:30 PM)100% (Aug 14, 6:00 AM)29.92 "Hg (Aug 14, 6:00 AM)
Low73 °F (Aug 18, 3:00 AM)52% (Aug 23, 4:00 PM)29.71 "Hg (Aug 22, 4:30 PM)
Average80 °F85%29.83 "Hg
* Reported Aug 14 6:00 AM — Aug 29 6:30 AM, Kuching, Weather by CustomWeather, © 2014

Note: Actual official high and low records may vary slightly from our data, if they occured in-between our weather recording intervals... More about our weather records

Advertising

Kuching weather history for previous 24 hours

 ConditionsComfort  
Time TempWeatherWind HumidityBarometerVisibility
6:30 AM
Aug 29
75 °FPartly cloudy.5 mph94%29.86 "Hg4 mi
6:00 AM75 °FLight rain. Partly cloudy.5 mph94%29.86 "Hg3 mi
5:30 AM75 °FLight rain. Partly cloudy.3 mph94%29.86 "Hg4 mi
5:00 AM75 °FLight rain. Partly cloudy.3 mph94%29.86 "Hg4 mi
4:30 AM75 °FPartly cloudy.3 mph94%29.86 "Hg5 mi
4:00 AM75 °FPartly cloudy.2 mph94%29.83 "HgN/A
3:30 AM75 °FLight rain. Partly cloudy.3 mph94%29.86 "Hg5 mi
3:00 AM75 °FLight rain. Partly cloudy.2 mph94%29.86 "Hg4 mi
2:30 AM75 °FLight rain. Partly cloudy.2 mph94%29.86 "Hg4 mi
2:00 AM75 °FLight rain. Partly cloudy.No wind94%29.89 "Hg4 mi
1:30 AM75 °FLight rain. Partly cloudy.1 mph94%29.89 "Hg4 mi
1:00 AM75 °FLight rain. Partly cloudy.2 mph94%29.89 "Hg4 mi
12:30 AM75 °FLight rain. Partly cloudy.5 mph94%29.89 "Hg4 mi
12:00 AM75 °FLight rain. Partly cloudy.5 mph94%29.89 "Hg5 mi
11:30 PM
Aug 28
77 °FPartly cloudy.3 mph89%29.89 "HgN/A
11:00 PM77 °FLight rain. Partly cloudy.3 mph89%29.89 "Hg5 mi
10:30 PM77 °FLight rain. Partly cloudy.3 mph89%29.89 "Hg5 mi
10:00 PM77 °FLight rain. Partly cloudy.6 mph89%29.89 "Hg5 mi
9:30 PM77 °FLight rain. Partly cloudy.5 mph89%29.86 "Hg5 mi
9:00 PM77 °FPartly cloudy.6 mph89%29.86 "HgN/A
8:30 PM79 °FLight rain. Partly cloudy.8 mph84%29.83 "Hg5 mi
8:00 PM79 °FLight rain. Partly cloudy.7 mph84%29.83 "Hg5 mi
7:30 PM79 °FLight rain. Partly cloudy.8 mph84%29.83 "Hg5 mi
7:00 PM79 °FThunderstorms. Partly cloudy.5 mph89%29.80 "Hg3 mi
6:30 PM81 °FThunderstorms. Broken clouds.3 mph89%29.80 "Hg4 mi
6:00 PM81 °FLight rain. Broken clouds.3 mph79%29.77 "Hg4 mi
5:30 PM82 °FBroken clouds.6 mph79%29.77 "Hg6 mi
5:00 PM86 °FScattered showers. Broken clouds.8 mph70%29.74 "Hg5 mi
4:30 PM88 °FBroken clouds.5 mph70%29.74 "HgN/A
4:00 PM86 °FBroken clouds.5 mph70%29.74 "HgN/A
3:30 PM88 °FBroken clouds.6 mph66%29.74 "HgN/A
3:00 PM84 °FBroken clouds.3 mph74%29.74 "HgN/A
2:30 PM84 °FBroken clouds.5 mph70%29.77 "HgN/A
2:00 PM82 °FBroken clouds.7 mph70%29.77 "HgN/A
1:30 PM84 °FBroken clouds.9 mph79%29.80 "HgN/A
1:00 PM86 °FBroken clouds.6 mph70%29.83 "HgN/A
12:30 PM86 °FBroken clouds.5 mph70%29.83 "HgN/A
12:00 PM86 °FPartly sunny.6 mph70%29.83 "HgN/A
11:30 AM84 °FBroken clouds.6 mph79%29.86 "HgN/A
11:00 AM86 °FBroken clouds.7 mph70%29.86 "HgN/A
10:30 AM84 °FBroken clouds.3 mph74%29.86 "HgN/A
10:00 AM84 °FBroken clouds.5 mph74%29.86 "HgN/A
9:30 AM82 °FBroken clouds.2 mph79%29.86 "HgN/A
9:00 AM81 °FPartly sunny.1 mph84%29.86 "HgN/A
8:30 AM79 °FPartly sunny.1 mph89%29.86 "HgN/A
8:00 AM77 °FPartly sunny.No wind94%29.83 "HgN/A
7:30 AM77 °FPartly sunny.1 mph89%29.83 "HgN/A
7:00 AM75 °FPartly sunny.1 mph94%29.83 "HgN/A
Weather by CustomWeather, © 2014

See weather overviewHow to use our weather pages